This is the latest recevied weather packets stored in our database for station/object K5KVN. If no packets are shown the sender has not sent any weather packets the latest 10 day(s).
| Time | Temp. | Humidity | Pressure | Rain* | Wind** | Luminosity | Snow |
|---|---|---|---|---|---|---|---|
| 1788332682 | 27.78° C | 68% | 1017.9 hPa | 0 mm | - | - | - |
| 1788332084 | 27.78° C | 68% | 1018 hPa | 0 mm | - | - | - |
| 1788331480 | 27.78° C | 67% | 1018 hPa | 0 mm | - | - | - |
| 1788330941 | 27.78° C | 68% | 1018 hPa | 0 mm | - | - | - |
| 1788330281 | 27.22° C | 68% | 1017.9 hPa | 0 mm | - | - | - |
| 1788329739 | 27.22° C | 68% | 1017.9 hPa | 0 mm | - | - | - |
| 1788329080 | 27.22° C | 68% | 1018 hPa | 0 mm | - | - | - |
| 1788328480 | 27.78° C | 67% | 1018 hPa | 0 mm | - | - | - |
| 1788327879 | 27.78° C | 66% | 1018 hPa | 0 mm | - | - | - |
| 1788327279 | 28.33° C | 66% | 1017.9 hPa | 0 mm | - | - | - |
| 1788326678 | 28.33° C | 66% | 1017.9 hPa | 0 mm | - | - | - |
| 1788326079 | 28.33° C | 65% | 1018 hPa | 0 mm | - | - | - |
| 1788325477 | 28.89° C | 64% | 1017.8 hPa | 0 mm | - | - | - |
| 1788324938 | 28.89° C | 63% | 1017.8 hPa | 0 mm | - | - | - |
| 1788324277 | 29.44° C | 63% | 1017.8 hPa | 0 mm | - | - | - |
| 1788323676 | 29.44° C | 62% | 1017.5 hPa | 0 mm | - | - | - |
| 1788323077 | 29.44° C | 62% | 1017.7 hPa | 0 mm | - | - | - |
| 1788322477 | 29.44° C | 62% | 1017.5 hPa | 0 mm | - | - | - |
| 1788321875 | 29.44° C | 61% | 1017.5 hPa | 0 mm | - | - | - |
| 1788321274 | 29.44° C | 61% | 1017.5 hPa | 0 mm | - | - | - |
| 1788320674 | 29.44° C | 61% | 1017.5 hPa | 0 mm | - | - | - |
| 1788320074 | 30° C | 60% | 1017.4 hPa | 0 mm | - | - | - |
| 1788319473 | 30° C | 59% | 1017.3 hPa | 0 mm | - | - | - |
| 1788318873 | 30.56° C | 58% | 1017.3 hPa | 0 mm | - | - | - |
| 1788318273 | 30.56° C | 57% | 1017.1 hPa | 0 mm | - | - | - |
* Rain latest hour (hover to see other rain measurements)
** Current wind speed in m/s (hover to see current wind gust speed)